カタログに戻る

STARLINK-11743

運用中通信VLEO
NORAD 64379·PAYLOAD·🇺🇸 United States

打ち上げ Jun 13, 2025 から Cape Canaveral Space Force Station

Loading…

次のパス (今後24時間)

TLE

最新Source: CelesTrak SupGP

元期: Sep 14, 2026, 23:06 UTC

1 64379C 25127K   26257.96298611  .00003582  00000+0  27799-4 0  2572
2 64379  43.0010  24.0145 0001757 270.6251 180.4691 15.70853630    16

AllMySatでSTARLINK-11743をリアルタイム追跡

Download on the App Store